Погода в Верхосунье

Россия / Кировская область     58°01′22″N   51°19′55″E
темп.,
°C
ветер,
м/с
пор.,
м/с
влажн.,
%
обл.,
%
осадки,
мм/ч
давл.,
гПа
погр.,
м
18 января, вт
вт1800:00−8ююз81591100 0.1 996632
03:00−8ю81593100 0.3 998621
06:00−7ю71494100 0.4 998571
09:00−7ю71494100 0.7 1000559
12:00−4ююз61295100 0.5 1001621
15:00−3ююз61295100 1.1 1002529
18:00−3ююз61296100 0.4 1003484
21:00−3ююз61196100 1.2 1004458
19 января, ср
ср1900:00−3ююз51097100 0.9 1005452
03:00−3з3697100 2.1 1006328
06:00−7зсз4795100 0.7 1008299
09:00−13з379786 0.8 1011139
12:00−12зюз479567 0.0 1012209
15:00−14юз49965 0.0 1014149
18:00−17зюз499723 0.0 1016114
21:00−19юз369960 0.0 101777
20 января, чт
чт2000:00
03:00−18ююз5119890 0.0 1017150
06:00−17ююз5119752 0.0 1017165
09:00
12:00−11ююз6158790 0.0 1017398
15:00−9ююз7148572 0.0 1017403
18:00−11ююз7148857 0.0 1018320
21:00−11ююз6149368 0.0 1019308
21 января, пт
пт2100:00−12ююз61491100 0.0 1020301
03:00−12ююз6148888 0.0 1022281
06:00−13ююз5148971 0.0 1022252
09:00−13ююз513915 0.0 1024242
12:00−9ююз5139481 0.0 1024351
15:00−8ю499597 0.0 1025232
18:00−9ю4119891 0.0 1026201
21:00−11ю4109424 0.0 1027171
22 января, сб
сб2200:00−15ю411905 0.0 1028147
03:00−15ююв4119136 0.0 1029157
06:00−15ююв4119668 0.0 1029148
09:00−14ююв5129598 0.0 1030185
12:00−10ююв5119073 0.0 1030277
15:00−10ююв4992100 0.0 1031197
18:00−12ююв41094100 0.0 1032173
21:00−12ююв4989100 0.0 1032172